Left ArrowRight Arrow

35.59393, -105.2239

Hourly Observations for May 3, 2024

Temp ( °F °C ) Dew Point ( °F °C ) Humidity (%) Winds ( mph kmh ) Pressure ( in mb ) Visibility ( mi km ) Precip ( " mm )
12:53 am 00:53 Clear 47 8.3 8 -13.3 20 20 NE 6 9 29.77 1008 10 16 0.00 0.00
1:53 am 01:53 Mostly Cloudy 45 7.2 11 -11.7 25 25 E 9 15 29.75 1007 10 16 0.00 0.00
2:53 am 02:53 Mostly Cloudy 50 10 17 -8.3 27 27 Calm 29.73 1007 10 16 0.00 0.00
3:53 am 03:53 Mostly Clear 41 5 11 -11.7 29 29 SSW 7 11 29.79 1009 10 16 0.00 0.00
4:53 am 04:53 Mostly Cloudy 41 5 14 -10 33 33 NNW 7 11 29.80 1009 10 16 0.00 0.00
5:15 am 05:15 Cloudy 41 5 19 -7.2 41 41 NNW 7 11 29.95 1014 10 16 0.00 0.00
5:34 am 05:34 Cloudy 43 6.1 22 -5.6 43 43 N 5 7 29.92 1013 10 16 0.00 0.00
5:53 am 05:53 Cloudy 43 6.1 24 -4.4 47 47 N 5 7 29.80 1009 10 16 0.00 0.00
6:53 am 06:53 Cloudy 46 7.8 29 -1.7 51 51 Calm 29.80 1009 10 16 0.00 0.00
7:16 am 07:16 Partly Cloudy 48 8.9 31 -0.6 51 51 Calm 29.84 1010 10 16 0.00 0.00
7:49 am 07:49 Mostly Cloudy 50 10 36 2 57 57 NNE 5 7 29.81 1010 10 16 0.00 0.00
7:53 am 07:53 Mostly Cloudy 51 10.6 36 2.2 56 56 Calm 29.80 1009 10 16 0.00 0.00
8:05 am 08:05 Partly Cloudy 52 11.1 37 2.8 57 57 Calm 29.79 1009 10 16 0.00 0.00
8:53 am 08:53 Sunny 54 12.2 44 6.7 69 69 S 6 9 29.80 1009 10 16 0.00 0.00
9:53 am 09:53 Sunny 59 15 43 6.1 55 55 SSE 12 19 29.80 1009 10 16 0.00 0.00
10:53 am 10:53 Sunny 65 18.3 40 4.4 40 40 SSW 9 15 29.76 1008 10 16 0.00 0.00
11:53 am 11:53 Mostly Sunny 67 19.4 28 -2.2 23 23 S 16 26 29.75 1007 10 16 0.00 0.00
12:53 pm 12:53 Partly Cloudy 71 21.7 33 0.6 25 25 S 20 31 29.72 1007 10 16 0.00 0.00
1:53 pm 13:53 Partly Cloudy 71 21.7 27 -2.8 19 19 S 15 24 29.70 1006 10 16 0.00 0.00
2:53 pm 14:53 Sunny 75 23.9 18 -7.8 11 11 WSW 29 46 29.64 1004 10 16 0.00 0.00
3:53 pm 15:53 Sunny 74 23.3 16 -8.9 11 11 WSW 25 41 29.66 1004 10 16 0.00 0.00
4:53 pm 16:53 Sunny 73 22.8 11 -11.7 9 9 SW 29 46 29.66 1004 10 16 0.00 0.00
5:53 pm 17:53 Sunny 71 21.7 13 -10.6 10 10 W 25 41 29.67 1005 10 16 0.00 0.00
6:53 pm 18:53 Sunny 69 20.6 11 -11.7 10 10 WSW 25 41 29.66 1005 10 16 0.00 0.00
7:53 pm 19:53 Clear 64 17.8 9 -12.8 11 11 WSW 14 22 29.68 1005 10 16 0.00 0.00
8:53 pm 20:53 Clear 57 13.9 12 -11.1 16 16 WSW 8 13 29.72 1006 10 16 0.00 0.00
9:53 pm 21:53 Clear 61 16.1 13 -10.6 15 15 SW 5 7 29.71 1006 10 16 0.00 0.00
10:53 pm 22:53 Clear 58 14.4 14 -10 17 17 NW 6 9 29.72 1006 10 16 0.00 0.00
11:53 pm 23:53 Clear 47 8.3 15 -9.4 27 27 NE 8 13 29.76 1008 10 16 0.00 0.00

Powered by Vaisala Xweather